sat.trackr.live / text

‹ back to catalog

METEOSAT-10 (MSG-3)

NORAD 38552 · 2012-035B

PAYLOAD ACTIVE UNKNOWN

§ Identity

Operator
Country
EUME
Launch date
2012-07-05
Launch site
FRGUI
Launch vehicle
Mass (kg)
RCS (m²)
4.39

Purposes: comms, earth_obs

External: N2YO · Heavens-Above · Gunter

§ Orbital elements

Epoch: 2026-05-25T02:01:55.161408Z

Period
1,436.08 min
Inclination
4.6194°
Eccentricity
0.0001910
Mean motion
1.00273267 rev/d
Perigee alt
35,778.1 km
Apogee alt
35,794.2 km
Semi-major
42,164.3 km
B*
0.0000e+0
RAAN
61.1269°
Arg perigee
325.7927°
Mean anomaly
246.2972°
Rev number
5,062

§ Raw data

METEOSAT-10 (MSG-3)1 38552U 12035B   26145.08466622 -.00000009  00000+0  00000+0 0  99942 38552   4.6194  61.1269 0001910 325.7927 246.2972  1.00273267 50623

JSON: /api/v1/satellites/38552 · /tle

For live sub-satellite position, see the globe view (requires WebGL).

§ Visibility from observer

Set your observer location to see the next 7 days of passes ≥ 10°. The values pass through the URL so the page stays shareable.

No JS? Fill the form by hand. The geolocation button needs JavaScript.